DW7554 Weather Reports


Display with metric or nautical units.
time (UTC)temp
F
wind
direction
speed
MPH
gust
MPH
rain 1hr
in
rain 24hr
in
rain mn
in
humidity
%
barometer
mb
20260502181559 55 49 3.0 16.0 0.00 0.00 0.00 51 1015.2
20260502180105 57 63 2.0 16.0 0.00 0.00 0.00 48 1015.1
20260502163112 65 94 6.0 16.0 0.00 0.00 0.00 33 1014.8
20260502161555 65 88 8.0 16.0 0.00 0.00 0.00 34 1014.9
20260502151553 65 92 8.0 15.0 0.00 0.00 0.00 36 1015.4
20260502123030 64 255 5.0 10.0 0.00 0.00 0.00 41 1017.4
20260502121528 64 220 5.0 10.0 0.00 0.00 0.00 40 1017.6
20260502114529 63 266 6.0 11.0 0.00 0.00 0.00 42 1017.9
20260502113025 63 269 7.0 12.0 0.00 0.00 0.00 45 1018.2
20260502111517 62 285 5.0 11.0 0.00 0.00 0.00 45 1018.3
20260502110018 61 285 7.0 13.0 0.00 0.00 0.00 46 1018.7
20260502104514 60 290 8.0 12.0 0.00 0.00 0.00 46 1018.9
20260502103007 59 296 8.0 13.0 0.00 0.00 0.00 47 1019.1
20260502101505 59 257 8.0 12.0 0.00 0.00 0.00 50 1019.3
20260502071528 51 235 4.0 6.0 0.00 0.00 0.00 56 1021.0
20260502070029 51 219 2.0 6.0 0.00 0.00 0.00 60 1021.3
20260502064539 49 214 2.0 6.0 0.00 0.00 0.00 62 1021.4
20260502063025 51 215 1.0 4.0 0.00 0.00 0.00 58 1021.4
20260502061519 47 83 0.0 0.0 0.00 0.00 0.00 66 1021.4
20260502060029 45 77 0.0 0.0 0.00 0.00 0.00 74 1021.6
20260502054510 43 78 1.0 0.0 0.00 0.00 0.00 76 1021.8
20260502053006 41 88 0.0 0.0 0.00 0.00 0.00 79 1021.9
20260502051505 0 0.0 0.0 0.00 0.00 0.00 1021.9
20260502050058 0 0.0 0.0 0.00 0.00 0.00 1021.9
20260502044605 0 0.0 0.0 0.00 0.00 0.00 1022.1
20260502043122 0 0.0 0.0 0.00 0.00 0.00 1022.2
20260502041556 0 0.0 0.0 0.00 0.00 0.00 1022.3
20260502040042 0 0.0 0.0 0.00 0.00 0.00 1022.5
20260502034538 34 75 1.0 3.0 0.00 0.00 0.00 87 1022.5
20260502033037 35 59 2.0 13.0 0.00 0.00 0.00 88 1022.7
20260502031536 35 66 2.0 13.0 0.00 0.00 0.00 86 1022.7
20260502030035 36 73 2.0 13.0 0.00 0.00 0.00 87 1022.8
20260502024534 35 76 2.0 13.0 0.00 0.00 0.00 87 1022.8
20260502023032 36 92 0.0 13.0 0.00 0.00 0.00 85 1022.8
20260502021529 36 103 1.0 13.0 0.00 0.00 0.00 84 1022.8
20260502020033 36 67 2.0 13.0 0.00 0.00 0.00 86 1022.8
20260502014529 36 67 2.0 13.0 0.00 0.00 0.00 85 1022.9
20260502013023 36 63 2.0 13.0 0.00 0.00 0.00 83 1022.9
20260502011522 37 70 2.0 13.0 0.00 0.00 0.00 82 1023.1
20260502010028 37 53 2.0 13.0 0.00 0.00 0.00 83 1023.1
20260502004527 37 83 1.0 13.0 0.00 0.00 0.00 84 1023.2
20260502003023 37 58 2.0 13.0 0.00 0.00 0.00 84 1023.2
20260502001518 37 73 3.0 13.0 0.00 0.00 0.00 84 1023.3
20260502000021 37 66 1.0 13.0 0.00 0.00 0.00 83 1023.5
20260501234515 37 68 3.0 13.0 0.00 0.00 0.00 83 1023.6
20260501233013 37 71 2.0 13.0 0.00 0.00 0.00 82 1023.4
20260501231510 38 69 0.0 13.0 0.00 0.00 0.00 81 1023.5
20260501230016 39 70 1.0 13.0 0.00 0.00 0.00 79 1023.6
20260501224505 39 81 0.0 13.0 0.00 0.00 0.00 78 1023.6
20260501223003 40 64 0.0 13.0 0.00 0.00 0.00 77 1023.6
20260501221600 40 64 0.0 13.0 0.00 0.00 0.00 77 1023.6
20260501220109 40 60 0.0 13.0 0.00 0.00 0.00 76 1023.5
20260501214557 41 73 1.0 13.0 0.00 0.00 0.00 76 1023.5
20260501213059 41 105 0.0 13.0 0.00 0.00 0.00 77 1023.5
20260501211600 42 55 1.0 13.0 0.00 0.00 0.00 75 1023.4
20260501210056 41 80 0.0 13.0 0.00 0.00 0.00 76 1023.5
20260501204607 43 81 0.0 13.0 0.00 0.00 0.00 73 1023.4
20260501203054 42 56 1.0 13.0 0.00 0.00 0.00 73 1023.3
20260501201554 43 59 0.0 13.0 0.00 0.00 0.00 73 1023.3
20260501200053 43 70 1.0 13.0 0.00 0.00 0.00 75 1023.3
20260501194553 44 138 0.0 13.0 0.00 0.00 0.00 71 1023.1
20260501193055 44 64 0.0 13.0 0.00 0.00 0.00 70 1022.6
20260501191551 45 62 0.0 13.0 0.00 0.00 0.00 68 1022.6
20260501190050 46 68 1.0 13.0 0.00 0.00 0.00 68 1022.2
20260501184552 47 70 1.0 13.0 0.00 0.00 0.00 66 1022.1
20260501183053 48 67 2.0 13.0 0.00 0.00 0.00 63 1021.6